1486854000.3,46624,9.94,73828.3,-9.67,-35.07,-31.91,0,*51
1486854001.56,46625,9.94,73832.0,-9.71,-35.07,-31.91,0,*57
1486854002.81,46626,9.94,73830.0,-9.71,-35.07,-31.91,0,*54
1486854004.01,46627,9.94,73834.5,-9.67,-35.01,-31.79,0,*52
1486854005.27,46628,9.94,73832.0,-9.71,-35.07,-32.07,0,*56
1486854006.53,46629,9.94,73832.0,-9.67,-35.07,-31.95,0,*58
1486854007.79,46630,9.94,73830.0,-9.67,-35.07,-32.07,0,*58
1486854009.02,46631,9.94,73832.3,-9.71,-35.17,-31.95,0,*57
1486854010.24,46632,9.94,73828.5,-9.67,-35.17,-31.95,0,*53
1486854011.5,46633,9.94,73828.3,-9.67,-35.07,-32.07,0,*5B
1486854012.76,46634,9.94,73830.5,-9.71,-35.07,-31.95,0,*53
1486854013.99,46635,9.94,73828.3,-9.67,-35.07,-32.13,0,*58
1486854015.24,46636,9.94,73830.5,-9.67,-35.07,-32.07,0,*5E
1486854016.48,46637,9.94,73832.5,-9.67,-35.01,-32.07,0,*59
1486854017.71,46638,9.94,73828.8,-9.71,-35.07,-32.13,0,*52
1486854018.94,46639,9.94,73830.8,-9.67,-35.01,-32.07,0,*57
1486854020.2,46640,9.94,73832.3,-9.71,-35.07,-32.07,0,*58
1486854021.46,46641,9.94,73830.8,-9.71,-34.95,-32.07,0,*53
1486854022.72,46642,9.94,73832.0,-9.67,-35.07,-32.07,0,*5D
1486854023.92,46643,9.94,73832.3,-9.67,-35.17,-32.23,0,*5B
1486854025.14,46644,9.94,73828.8,-9.71,-35.07,-32.23,0,*5A
1486854026.34,46645,9.94,73828.5,-9.67,-35.17,-32.13,0,*5E
1486854027.57,46646,9.94,73828.3,-9.67,-35.07,-32.23,0,*5F
1486854028.76,46647,9.94,73830.0,-9.67,-35.17,-32.13,0,*5C
1486854029.99,46648,9.94,73828.5,-9.71,-35.07,-32.23,0,*56
1486854031.22,46649,9.94,73828.3,-9.71,-35.07,-32.23,0,*57
1486854032.43,46650,9.94,73828.5,-9.71,-35.01,-32.23,0,*59
1486854033.64,46651,9.94,73830.3,-9.67,-35.01,-32.23,0,*5F
1486854034.84,46652,9.94,73828.5,-9.71,-35.01,-32.13,0,*58
1486854036.09,46653,9.94,73828.0,-9.71,-35.07,-32.29,0,*56
1486854037.3,46654,9.94,73828.5,-9.71,-35.01,-32.23,0,*5D
1486854038.52,46655,9.94,73826.3,-9.71,-35.17,-32.29,0,*51
1486854039.75,46656,9.94,73830.0,-9.71,-35.07,-32.39,0,*52
1486854041.0,46657,9.94,73828.5,-9.71,-35.07,-32.29,0,*52
1486854042.24,46658,9.94,73828.3,-9.71,-35.07,-32.39,0,*5C
1486854043.49,46659,9.94,73828.5,-9.71,-35.07,-32.29,0,*5C
1486854044.69,46660,9.94,73830.0,-9.71,-35.17,-32.39,0,*56
1486854045.94,46661,9.94,73826.8,-9.71,-35.07,-32.29,0,*57
1486854047.2,46662,9.94,73830.3,-9.71,-35.07,-32.29,0,*54
1486854048.45,46663,9.94,73828.8,-9.71,-35.07,-32.29,0,*55
1486854049.68,46664,9.94,73826.5,-9.71,-35.07,-32.39,0,*53
1486854050.88,46665,9.94,73828.8,-9.71,-35.17,-32.39,0,*53
1486854052.12,46666,9.94,73830.0,-9.67,-35.07,-32.39,0,*56
1486854053.32,46667,9.94,73832.0,-9.67,-35.17,-32.39,0,*56
1486854054.55,46668,9.94,73826.8,-9.71,-35.07,-32.39,0,*5F
1486854055.78,46669,9.94,73828.3,-9.71,-35.07,-32.39,0,*5E
1486854057.02,46670,9.94,73828.5,-9.71,-35.07,-32.39,0,*56
1486854058.25,46671,9.94,73830.0,-9.71,-35.07,-32.39,0,*57
1486854059.48,46672,9.94,73830.3,-9.67,-35.07,-32.39,0,*53
1486854060.74,46673,9.94,73830.0,-9.71,-35.07,-32.45,0,*5E
1486854061.97,46674,9.94,73830.0,-9.67,-35.07,-32.39,0,*55
1486854063.23,46675,9.94,73828.3,-9.71,-35.07,-32.45,0,*58
1486854064.42,46676,9.94,73830.5,-9.71,-35.17,-32.57,0,*59
1486854065.67,46677,9.94,73830.3,-9.71,-35.07,-32.45,0,*5A
1486854066.9,46678,9.94,73828.3,-9.71,-35.07,-32.57,0,*56
1486854068.15,46679,9.94,73832.0,-9.71,-35.07,-32.45,0,*54
1486854069.35,46680,9.94,73830.8,-9.67,-35.17,-32.57,0,*57
1486854070.57,46681,9.94,73828.8,-9.71,-35.07,-32.57,0,*50
1486854071.79,46682,9.94,73834.8,-9.71,-35.17,-32.63,0,*55
1486854073.02,46683,9.94,73832.3,-9.71,-35.17,-32.63,0,*54
1486854074.24,46684,9.94,73830.0,-9.71,-35.17,-32.63,0,*53
1486854075.46,46685,9.94,73828.8,-9.71,-35.17,-32.63,0,*52
1486854076.66,46686,9.94,73830.8,-9.71,-35.17,-32.69,0,*5B
1486854077.9,46687,9.94,73828.5,-9.71,-35.07,-32.69,0,*5B
1486854079.1,46688,9.94,73828.0,-9.67,-35.17,-32.69,0,*52
1486854080.32,46689,9.94,73828.5,-9.71,-35.17,-32.63,0,*5E
1486854081.52,46690,9.94,73830.3,-9.71,-35.17,-32.69,0,*5C
1486854082.73,46691,9.94,73830.5,-9.71,-35.17,-32.69,0,*5D
1486854083.96,46692,9.94,73830.8,-9.71,-35.23,-32.69,0,*59
1486854085.21,46693,9.94,73826.5,-9.71,-35.23,-32.79,0,*59
1486854086.46,46694,9.94,73830.3,-9.71,-35.35,-32.85,0,*5A
1486854087.71,46695,9.94,73826.8,-9.71,-35.23,-32.85,0,*5C
1486854088.94,46696,9.94,73828.5,-9.71,-35.17,-32.79,0,*5B
1486854090.2,46697,9.94,73830.8,-9.67,-35.07,-32.85,0,*5F
1486854091.45,46698,9.94,73830.3,-9.67,-35.23,-32.85,0,*56
1486854092.71,46699,9.94,73828.5,-9.71,-35.23,-32.85,0,*50
1486854093.96,46700,9.94,73828.3,-9.71,-35.23,-32.85,0,*51
1486854095.21,46701,9.94,73828.3,-9.67,-35.35,-32.85,0,*50
1486854096.46,46702,9.94,73828.5,-9.71,-35.23,-32.85,0,*53
1486854097.69,46703,9.94,73828.3,-9.71,-35.35,-33.03,0,*5A
1486854098.94,46704,9.94,73828.5,-9.71,-35.23,-32.85,0,*55
1486854100.19,46705,9.94,73828.3,-9.67,-35.35,-32.85,0,*54
1486854101.42,46706,9.94,73828.8,-9.67,-35.23,-33.03,0,*5F
1486854102.66,46707,9.94,73828.5,-9.71,-35.35,-32.97,0,*52
1486854103.88,46708,9.94,73828.8,-9.67,-35.35,-33.03,0,*56
1486854105.11,46709,9.94,73826.8,-9.71,-35.35,-33.03,0,*50
1486854106.33,46710,9.94,73830.0,-9.67,-35.23,-33.15,0,*5F
1486854107.55,46711,9.94,73830.8,-9.71,-35.35,-33.15,0,*5E
1486854108.77,46712,9.94,73828.3,-9.71,-35.35,-33.03,0,*5A
1486854110.0,46713,9.94,73826.5,-9.71,-35.35,-33.03,0,*5B
1486854111.22,46714,9.94,73828.5,-9.71,-35.23,-33.15,0,*5C
1486854112.44,46715,9.94,73828.5,-9.67,-35.23,-33.15,0,*5A
1486854113.67,46716,9.94,73830.8,-9.71,-35.35,-33.21,0,*5E
1486854114.89,46717,9.94,73828.5,-9.71,-35.23,-33.15,0,*5F
1486854116.11,46718,9.94,73830.3,-9.71,-35.35,-33.21,0,*50
1486854117.34,46719,9.94,73826.0,-9.71,-35.35,-33.21,0,*51
1486854118.56,46720,9.94,73824.3,-9.71,-35.35,-33.21,0,*5B
1486854119.78,46721,9.94,73826.8,-9.71,-35.23,-33.21,0,*5D
1486854121.0,46722,9.94,73826.5,-9.71,-35.35,-33.21,0,*59
1486854122.23,46723,9.94,73830.8,-9.67,-35.35,-33.21,0,*5F
1486854123.45,46724,9.94,73826.8,-9.71,-35.35,-33.21,0,*5F
1486854124.67,46725,9.94,73828.0,-9.67,-35.35,-33.21,0,*59
1486854125.89,46726,9.94,73826.0,-9.71,-35.41,-33.37,0,*59
1486854127.12,46727,9.94,73824.5,-9.71,-35.41,-33.37,0,*58
1486854128.37,46728,9.94,73830.3,-9.71,-35.35,-33.31,0,*52
1486854129.59,46729,9.94,73824.8,-9.71,-35.35,-33.37,0,*55
1486854130.84,46730,9.94,73828.0,-9.71,-35.41,-33.31,0,*58
1486854132.06,46731,9.94,73826.0,-9.71,-35.35,-33.37,0,*5C
1486854133.31,46732,9.94,73830.0,-9.71,-35.35,-33.31,0,*59
1486854134.56,46733,9.94,73826.5,-9.67,-35.35,-33.31,0,*5F
1486854135.79,46734,9.94,73826.8,-9.71,-35.35,-33.37,0,*59
1486854137.03,46735,9.94,73826.3,-9.71,-35.35,-33.49,0,*51
1486854138.28,46736,9.94,73830.8,-9.71,-35.41,-33.49,0,*51
1486854139.52,46737,9.94,73826.3,-9.71,-35.41,-33.49,0,*50
1486854140.77,46738,9.94,73824.3,-9.71,-35.41,-33.49,0,*5F
1486854142.01,46739,9.94,73826.3,-9.67,-35.53,-33.49,0,*5A
1486854143.25,46740,9.94,73826.3,-9.67,-35.41,-33.49,0,*57
1486854144.47,46741,9.94,73826.5,-9.71,-35.41,-33.55,0,*5C
1486854145.71,46742,9.94,73828.0,-9.71,-35.41,-33.49,0,*52
1486854146.93,46743,9.94,73826.5,-9.67,-35.41,-33.55,0,*59
1486854148.15,46744,9.94,73826.0,-9.67,-35.53,-33.55,0,*5D
1486854149.39,46745,9.94,73830.3,-9.67,-35.41,-33.49,0,*52
1486854150.6,46746,9.94,73826.8,-9.71,-35.53,-33.55,0,*58
1486854151.82,46747,9.94,73826.3,-9.71,-35.41,-33.55,0,*5A
1486854153.04,46748,9.94,73830.0,-9.71,-35.53,-33.55,0,*56
1486854154.25,46749,9.94,73830.5,-9.71,-35.53,-33.55,0,*57
1486854155.47,46750,9.94,73828.8,-9.67,-35.53,-33.55,0,*58
1486854156.68,46751,9.94,73826.5,-9.71,-35.53,-33.55,0,*5E
1486854157.9,46752,9.94,73828.3,-9.71,-35.53,-33.55,0,*5D
1486854159.11,46753,9.94,73828.5,-9.67,-35.53,-33.55,0,*5B
1486854160.33,46754,9.94,73830.5,-9.71,-35.53,-33.67,0,*5A
1486854161.55,46755,9.94,73826.8,-9.71,-35.53,-33.67,0,*5B
1486854162.77,46756,9.94,73830.8,-9.67,-35.53,-33.67,0,*5F
1486854163.98,46757,9.94,73826.3,-9.71,-35.53,-33.67,0,*59
1486854165.18,46758,9.94,73828.3,-9.67,-35.59,-33.67,0,*5B
1486854166.38,46759,9.94,73824.0,-9.67,-35.71,-33.67,0,*50
1486854167.6,46760,9.94,73828.8,-9.71,-35.53,-33.67,0,*5D
1486854168.83,46761,9.94,73828.5,-9.67,-35.71,-33.73,0,*5E
1486854170.05,46762,9.94,73830.3,-9.67,-35.71,-33.73,0,*5D
1486854171.25,46763,9.94,73826.3,-9.67,-35.59,-33.67,0,*53
1486854172.47,46764,9.94,73826.8,-9.71,-35.59,-33.77,0,*52
1486854173.71,46765,9.94,73830.0,-9.67,-35.53,-33.73,0,*5A
1486854174.93,46766,9.94,73828.5,-9.67,-35.59,-33.77,0,*57
1486854176.15,46767,9.94,73828.0,-9.71,-35.59,-33.73,0,*55
1486854177.38,46768,9.94,73826.5,-9.71,-35.71,-33.77,0,*54
1486854178.6,46769,9.94,73828.5,-9.71,-35.71,-33.73,0,*51
1486854179.82,46770,9.94,73826.8,-9.67,-35.59,-33.77,0,*50
1486854181.05,46771,9.94,73828.3,-9.71,-35.71,-33.73,0,*58
1486854182.27,46772,9.94,73826.8,-9.71,-35.59,-33.73,0,*51
1486854183.49,46773,9.94,73826.3,-9.71,-35.53,-33.67,0,*5F
1486854184.71,46774,9.94,73828.0,-9.71,-35.71,-33.73,0,*5D
1486854185.93,46775,9.94,73826.8,-9.71,-35.59,-33.73,0,*56
1486854187.16,46776,9.94,73828.5,-9.71,-35.71,-33.73,0,*5F
1486854188.38,46777,9.94,73828.0,-9.71,-35.71,-33.77,0,*5A
1486854189.6,46778,9.94,73828.8,-9.71,-35.59,-33.77,0,*5F
1486854190.83,46779,9.94,73826.5,-9.71,-35.71,-33.73,0,*50
1486854192.05,46780,9.94,73826.0,-9.67,-35.71,-33.73,0,*51
1486854193.28,46781,9.94,73826.0,-9.67,-35.71,-33.73,0,*50
1486854194.5,46782,9.94,73828.5,-9.71,-35.59,-33.73,0,*5E
1486854195.7,46783,9.94,73828.3,-9.71,-35.71,-33.67,0,*50
1486854196.92,46784,9.94,73832.0,-9.71,-35.59,-33.73,0,*58
1486854198.14,46785,9.94,73828.8,-9.67,-35.71,-33.77,0,*50
1486854199.37,46786,9.94,73830.3,-9.71,-35.59,-33.77,0,*5E
1486854200.56,46787,9.94,73826.3,-9.71,-35.71,-33.95,0,*59
1486854201.79,46788,9.94,73824.5,-9.71,-35.71,-33.77,0,*5A
1486854202.98,46789,9.94,73828.3,-9.71,-35.71,-33.95,0,*57
1486854204.21,46790,9.94,73826.8,-9.71,-35.71,-33.77,0,*53
1486854205.4,46791,9.94,73826.0,-9.67,-35.71,-33.95,0,*59
1486854206.6,46792,9.94,73828.5,-9.67,-35.77,-33.95,0,*5C
1486854207.8,46793,9.94,73830.8,-9.71,-35.89,-33.95,0,*5B
1486854209.0,46794,9.94,73826.8,-9.67,-35.77,-33.95,0,*5A
1486854210.2,46795,9.94,73826.5,-9.71,-35.77,-33.95,0,*5C
1486854211.42,46796,9.94,73824.5,-9.71,-35.71,-33.77,0,*55
1486854212.61,46797,9.94,73830.0,-9.71,-35.59,-33.95,0,*52
1486854213.81,46798,9.94,73828.3,-9.67,-35.71,-34.07,0,*5C
1486854215.01,46799,9.94,73828.3,-9.71,-35.77,-34.13,0,*59
1486854216.21,46800,9.94,73830.0,-9.71,-35.77,-34.07,0,*53
1486854217.42,46801,9.94,73828.8,-9.71,-35.77,-34.07,0,*52
1486854218.62,46802,9.94,73828.5,-9.71,-35.77,-34.07,0,*51
1486854219.82,46803,9.94,73828.3,-9.71,-35.77,-34.07,0,*50
1486854221.02,46804,9.94,73828.0,-9.71,-35.77,-34.07,0,*57
1486854222.22,46805,9.94,73828.8,-9.71,-35.89,-33.95,0,*5B
1486854223.42,46806,9.94,73828.8,-9.71,-35.77,-33.95,0,*59
1486854224.62,46807,9.94,73830.5,-9.67,-35.77,-33.95,0,*5F
1486854225.82,46808,9.94,73828.5,-9.71,-35.77,-33.95,0,*57
1486854227.01,46809,9.94,73828.3,-9.71,-35.71,-33.95,0,*50
1486854228.21,46810,9.94,73824.5,-9.71,-35.71,-33.95,0,*58
1486854229.41,46811,9.94,73828.8,-9.71,-35.77,-33.95,0,*5F
1486854230.61,46812,9.94,73826.8,-9.71,-35.89,-33.95,0,*5D
1486854231.81,46813,9.94,73826.3,-9.71,-35.77,-34.07,0,*51
1486854233.01,46814,9.94,73828.3,-9.71,-35.77,-34.07,0,*56
1486854234.21,46815,9.94,73824.8,-9.71,-35.77,-34.07,0,*57
1486854235.41,46816,9.94,73830.0,-9.71,-35.77,-34.07,0,*54
1486854236.61,46817,9.94,73828.8,-9.71,-35.77,-34.07,0,*55
1486854237.82,46818,9.88,73826.0,-9.71,-35.77,-34.13,0,*5F
1486854239.02,46819,9.94,73828.0,-9.71,-35.77,-34.07,0,*5B
1486854240.22,46820,9.94,73828.5,-9.71,-35.89,-34.07,0,*50
1486854241.47,46821,9.94,73830.3,-9.73,-35.95,-34.13,0,*5B
1486854242.72,46822,9.94,73830.3,-9.75,-35.95,-34.19,0,*54
1486854243.94,46823,9.94,73828.5,-9.75,-36.01,-34.31,0,*51
1486854245.19,46824,9.88,73824.3,-9.73,-36.01,-34.19,0,*5A
1486854246.42,46825,9.94,73830.3,-9.73,-36.01,-34.13,0,*51
1486854247.66,46826,9.94,73830.3,-9.73,-36.13,-34.13,0,*51
1486854248.94,46827,9.94,73828.5,-9.73,-35.95,-34.19,0,*57
1486854250.16,46828,9.94,73832.3,-9.71,-35.95,-34.13,0,*50
1486854251.44,46829,9.94,73830.5,-9.73,-35.95,-34.19,0,*59
1486854252.69,46830,9.94,73828.3,-9.73,-36.01,-34.19,0,*5F
1486854253.93,46831,9.94,73832.0,-9.73,-36.01,-34.19,0,*5E
1486854255.18,46832,9.94,73828.5,-9.73,-36.01,-34.19,0,*5D
1486854256.45,46833,9.94,73828.3,-9.73,-35.95,-34.19,0,*52
1486854257.68,46834,9.94,73828.3,-9.75,-35.95,-34.13,0,*59
1486854258.94,46835,9.94,73828.5,-9.73,-35.95,-34.13,0,*5E
1486854260.19,46836,9.94,73830.8,-9.73,-35.95,-34.13,0,*5D
1486854261.43,46837,9.94,73832.8,-9.75,-36.13,-34.19,0,*5D
1486854262.65,46838,9.94,73828.8,-9.75,-36.01,-34.19,0,*51
1486854263.9,46839,9.94,73832.5,-9.73,-36.01,-34.19,0,*56
1486854265.12,46840,9.94,73832.8,-9.75,-36.01,-34.19,0,*5E
1486854266.35,46841,9.94,73832.0,-9.75,-36.01,-34.31,0,*55
1486854267.59,46842,9.94,73830.3,-9.73,-36.13,-34.13,0,*53
1486854268.84,46843,9.94,73830.5,-9.73,-36.01,-34.19,0,*5B
1486854270.06,46844,9.94,73830.3,-9.75,-36.19,-34.19,0,*53
1486854271.31,46845,9.94,73828.5,-9.75,-35.95,-34.19,0,*55
1486854272.51,46846,9.94,73828.0,-9.75,-36.01,-34.13,0,*52
1486854273.77,46847,9.94,73834.0,-9.75,-35.95,-34.01,0,*5E
1486854275.02,46848,9.94,73828.3,-9.75,-35.95,-34.19,0,*58
1486854276.27,46849,9.94,73828.8,-9.73,-36.13,-34.13,0,*58
1486854277.49,46850,9.94,73830.0,-9.75,-36.01,-34.19,0,*5F
1486854278.72,46851,9.94,73832.5,-9.75,-35.95,-34.13,0,*5A
1486854279.94,46852,9.94,73832.3,-9.75,-36.01,-34.19,0,*5D
1486854281.17,46853,9.94,73830.5,-9.75,-35.95,-34.13,0,*58
1486854282.41,46854,9.94,73832.3,-9.75,-36.13,-34.19,0,*58
1486854283.62,46855,9.94,73830.0,-9.75,-36.01,-34.13,0,*50
1486854284.85,46856,9.94,73828.3,-9.75,-35.95,-34.13,0,*5D
1486854286.05,46857,9.94,73832.5,-9.75,-36.01,-34.13,0,*52
1486854287.27,46858,9.94,73834.5,-9.75,-36.01,-34.19,0,*57
1486854288.51,46859,9.94,73830.5,-9.75,-36.13,-34.19,0,*55
1486854289.74,46860,9.94,73828.8,-9.75,-36.13,-34.13,0,*55
1486854290.97,46861,9.94,73832.0,-9.75,-35.95,-34.13,0,*59
1486854292.22,46862,9.94,73830.8,-9.77,-36.07,-34.19,0,*5A
1486854293.47,46863,9.94,73830.5,-9.77,-36.01,-34.19,0,*5D
1486854294.73,46864,9.94,73830.3,-9.77,-36.07,-34.19,0,*5C
1486854295.96,46865,9.88,73828.8,-9.77,-36.07,-34.07,0,*52
1486854297.21,46866,9.88,73828.5,-9.77,-36.19,-34.19,0,*51
1486854298.47,46867,9.94,73832.8,-9.77,-36.07,-33.89,0,*51
1486854299.67,46868,9.94,73828.0,-9.79,-36.01,-34.07,0,*57
1486854300.9,46869,9.94,73828.0,-9.77,-36.19,-34.07,0,*51
1486854302.13,46870,9.94,73834.0,-9.77,-36.01,-34.07,0,*50
1486854303.33,46871,9.94,73832.5,-9.79,-36.01,-34.25,0,*5F
1486854304.58,46872,9.94,73830.5,-9.77,-36.07,-34.19,0,*5B
1486854305.83,46873,9.94,73830.3,-9.77,-36.07,-34.19,0,*5A
1486854307.05,46874,9.94,73834.5,-9.79,-36.19,-34.19,0,*5C
1486854308.28,46875,9.94,73830.8,-9.77,-36.07,-34.25,0,*53
1486854309.53,46876,9.88,73828.0,-9.77,-36.01,-34.19,0,*59
1486854310.79,46877,9.94,73830.0,-9.77,-36.01,-33.89,0,*56
1486854312.02,46878,9.94,73832.8,-9.77,-36.07,-34.07,0,*5E
1486854313.22,46879,9.94,73834.3,-9.79,-36.01,-34.07,0,*57
1486854314.45,46880,9.94,73830.3,-9.79,-36.01,-33.89,0,*50
1486854315.68,46881,9.94,73830.8,-9.79,-36.01,-33.89,0,*51
1486854316.91,46882,9.94,73834.0,-9.79,-35.89,-33.89,0,*51
1486854318.14,46883,9.94,73828.5,-9.77,-36.01,-33.83,0,*57
1486854319.34,46884,9.94,73830.8,-9.79,-35.89,-33.83,0,*5D
1486854320.57,46885,9.94,73832.8,-9.77,-35.89,-33.83,0,*52
1486854321.8,46886,9.94,73830.3,-9.79,-36.01,-33.89,0,*56
1486854323.03,46887,9.94,73832.3,-9.79,-35.89,-33.89,0,*54
1486854324.26,46888,9.94,73828.8,-9.77,-36.07,-34.07,0,*51
1486854325.49,46889,9.94,73828.0,-9.79,-36.01,-33.77,0,*58
1486854326.69,46890,9.94,73830.8,-9.79,-36.01,-33.83,0,*5B
1486854327.92,46891,9.94,73832.0,-9.79,-36.01,-33.89,0,*50
1486854329.12,46892,9.94,73830.5,-9.81,-36.07,-33.83,0,*58
1486854330.35,46893,9.94,73834.0,-9.81,-36.07,-33.89,0,*53
1486854331.57,46894,9.88,73830.3,-9.81,-36.07,-33.89,0,*54
1486854332.78,46895,9.94,73832.0,-9.79,-35.89,-33.83,0,*5D
1486854334.01,46896,9.94,73830.5,-9.81,-35.95,-33.83,0,*54
1486854335.23,46897,9.94,73830.8,-9.81,-36.07,-33.89,0,*57
1486854336.46,46898,9.94,73828.5,-9.81,-36.07,-33.89,0,*58
1486854337.71,46899,9.94,73830.8,-9.81,-35.95,-33.89,0,*51
1486854338.91,46900,9.94,73830.3,-9.81,-36.07,-33.95,0,*55
1486854340.14,46901,9.94,73834.3,-9.81,-36.07,-33.89,0,*59
1486854341.37,46902,9.94,73832.5,-9.79,-35.89,-33.77,0,*59
1486854342.6,46903,9.94,73832.3,-9.81,-36.07,-33.89,0,*5B
1486854343.82,46904,9.94,73828.0,-9.81,-35.95,-33.83,0,*5E
1486854345.05,46905,9.94,73834.8,-9.81,-35.95,-33.83,0,*5F
1486854346.25,46906,9.94,73832.5,-9.81,-36.07,-33.83,0,*54
1486854347.5,46907,9.94,73832.3,-9.83,-35.95,-33.83,0,*5F
1486854348.75,46908,9.94,73828.8,-9.83,-35.95,-33.83,0,*50
1486854350.0,46909,9.94,73834.8,-9.83,-35.89,-33.73,0,*53
1486854351.28,46910,9.94,73830.5,-9.83,-35.95,-33.73,0,*56
1486854352.53,46911,9.94,73832.0,-9.83,-35.95,-33.83,0,*58
1486854353.76,46912,9.94,73832.3,-9.81,-35.95,-33.83,0,*59
1486854354.98,46913,9.94,73828.0,-9.83,-35.89,-33.83,0,*57
1486854356.21,46914,9.94,73830.3,-9.83,-35.89,-33.67,0,*5A
1486854357.46,46915,9.94,73828.3,-9.83,-35.77,-33.73,0,*5F
1486854358.69,46916,9.88,73828.8,-9.81,-36.07,-33.73,0,*5A
1486854359.95,46917,9.94,73832.8,-9.81,-35.95,-33.73,0,*53
1486854361.18,46918,9.94,73830.3,-9.81,-35.89,-33.73,0,*51
1486854362.4,46919,9.94,73830.3,-9.81,-35.89,-33.73,0,*50
1486854363.65,46920,9.94,73832.5,-9.83,-35.89,-33.73,0,*58
1486854364.88,46921,9.94,73830.5,-9.83,-35.89,-33.67,0,*5C
1486854366.14,46922,9.94,73828.5,-9.85,-35.95,-33.77,0,*55
1486854367.4,46923,9.94,73832.8,-9.85,-35.95,-33.77,0,*54
1486854368.65,46924,9.94,73830.8,-9.85,-35.95,-33.77,0,*53
1486854369.93,46925,9.94,73830.3,-9.83,-35.95,-33.73,0,*50
1486854371.16,46926,9.94,73828.8,-9.83,-35.77,-33.67,0,*5A
1486854372.42,46927,9.94,73830.8,-9.85,-35.95,-33.77,0,*50
1486854373.68,46928,9.94,73828.0,-9.85,-35.83,-33.73,0,*5C
1486854374.93,46929,9.88,73828.5,-9.85,-35.83,-33.77,0,*59
1486854376.21,46930,9.94,73830.0,-9.87,-35.95,-33.77,0,*54
1486854377.47,46931,9.94,73830.3,-9.85,-35.95,-33.73,0,*53
1486854378.75,46932,9.94,73830.5,-9.87,-35.83,-33.73,0,*55
1486854380.0,46933,9.94,73830.5,-9.85,-35.83,-33.61,0,*55
1486854381.26,46934,9.94,73830.0,-9.87,-35.77,-33.61,0,*5B
1486854382.46,46935,9.94,73834.3,-9.85,-35.77,-33.55,0,*5F
1486854383.73,46936,9.94,73830.3,-9.87,-35.77,-33.43,0,*59
1486854384.96,46937,9.88,73828.5,-9.87,-35.77,-33.55,0,*5F
1486854386.18,46938,9.94,73832.3,-9.85,-35.65,-33.55,0,*51
1486854387.46,46939,9.94,73832.5,-9.87,-35.65,-33.43,0,*55
1486854388.74,46940,9.94,73832.3,-9.87,-35.83,-33.43,0,*53
1486854389.97,46941,9.94,73832.0,-9.87,-35.59,-33.37,0,*56
1486854391.25,46942,9.94,73828.3,-9.87,-35.65,-33.43,0,*59
1486854392.5,46943,9.94,73828.8,-9.85,-35.65,-33.43,0,*5A
1486854393.71,46944,9.94,73832.0,-9.85,-35.77,-33.37,0,*5D
1486854394.96,46945,9.88,73828.8,-9.89,-35.65,-33.49,0,*5A
1486854396.2,46946,9.88,73830.0,-9.89,-35.71,-33.43,0,*56
1486854397.43,46947,9.94,73830.0,-9.89,-35.71,-33.43,0,*57
1486854398.68,46948,9.88,73826.5,-9.87,-35.65,-33.37,0,*50
1486854399.92,46949,9.94,73834.8,-9.89,-35.71,-33.43,0,*59
1486854401.17,46950,9.94,73830.3,-9.87,-35.65,-33.37,0,*59
1486854402.42,46951,9.94,73830.8,-9.87,-35.65,-33.37,0,*58
1486854403.7,46952,9.94,73832.8,-9.91,-35.65,-33.31,0,*5A
1486854404.95,46953,9.94,73832.0,-9.87,-35.59,-33.27,0,*54
1486854406.18,46954,9.94,73830.5,-9.87,-35.59,-33.21,0,*55
1486854407.41,46955,9.94,73832.3,-9.87,-35.47,-33.21,0,*5B
1486854408.66,46956,9.94,73830.5,-9.87,-35.59,-33.27,0,*51
1486854409.91,46957,9.94,73834.0,-9.89,-35.65,-33.27,0,*51
1486854411.17,46958,9.94,73830.5,-9.89,-35.65,-33.31,0,*59
1486854412.42,46959,9.94,73830.5,-9.89,-35.65,-33.27,0,*5F
1486854413.67,46960,9.94,73830.8,-9.89,-35.53,-33.27,0,*50
1486854414.93,46961,9.94,73830.0,-9.89,-35.65,-33.27,0,*54
1486854416.18,46962,9.94,73832.3,-9.89,-35.65,-33.27,0,*57
1486854417.43,46963,9.94,73830.5,-9.89,-35.53,-33.27,0,*53
1486854418.71,46964,9.88,73828.3,-9.91,-35.65,-33.27,0,*58
1486854419.99,46965,9.94,73830.5,-9.91,-35.65,-33.27,0,*59
1486854421.22,46966,9.94,73830.0,-9.89,-35.65,-33.15,0,*52
1486854422.46,46967,9.88,73830.8,-9.91,-35.53,-33.15,0,*5F
1486854423.7,46968,9.94,73832.3,-9.89,-35.47,-33.09,0,*51
1486854424.93,46969,9.94,73830.0,-9.89,-35.47,-33.09,0,*50
1486854426.18,46970,9.94,73830.8,-9.91,-35.47,-33.09,0,*51
1486854427.41,46971,9.88,73828.5,-9.89,-35.35,-32.91,0,*5C
1486854428.69,46972,9.94,73830.0,-9.91,-35.35,-32.97,0,*50
1486854429.92,46973,9.88,73828.8,-9.91,-35.47,-32.91,0,*52
1486854431.2,46974,9.94,73834.3,-9.91,-35.23,-32.97,0,*51
1486854432.48,46975,9.88,73830.5,-9.91,-35.35,-32.97,0,*57
1486854433.71,46976,9.94,73830.5,-9.91,-35.29,-32.91,0,*5F
1486854435.0,46977,9.94,73834.3,-9.91,-35.23,-32.85,0,*51
1486854436.23,46978,9.94,73832.5,-9.91,-35.29,-32.91,0,*51
1486854437.49,46979,9.88,73830.3,-9.91,-35.29,-32.85,0,*55
1486854438.78,46980,9.94,73832.5,-9.91,-35.23,-32.85,0,*59
1486854440.03,46981,9.94,73832.5,-9.95,-35.35,-32.91,0,*5E
1486854441.29,46982,9.88,73830.3,-9.95,-35.29,-32.79,0,*56
1486854442.55,46983,9.88,73828.8,-9.95,-35.29,-32.79,0,*57
1486854443.84,46984,9.94,73830.8,-9.91,-35.07,-32.75,0,*54
1486854445.13,46985,9.94,73832.0,-9.91,-35.23,-32.75,0,*53
1486854446.42,46986,9.94,73834.0,-9.91,-35.07,-32.75,0,*56
1486854447.71,46987,9.94,73834.8,-9.91,-35.23,-32.85,0,*5E
1486854448.92,46988,9.94,73834.3,-9.97,-35.29,-32.91,0,*58
1486854450.15,46989,9.94,73834.8,-9.95,-35.29,-32.91,0,*5B
1486854451.41,46990,9.94,73834.5,-9.95,-35.13,-32.79,0,*5C
1486854452.64,46991,9.94,73834.0,-9.97,-35.13,-32.79,0,*5F
1486854453.9,46992,9.88,73830.8,-9.95,-35.17,-32.79,0,*5A
1486854455.15,46993,9.88,73830.3,-9.95,-35.17,-32.79,0,*5B
1486854456.41,46994,9.88,73828.3,-9.95,-35.29,-32.79,0,*51
1486854457.67,46995,9.94,73832.0,-9.95,-35.17,-32.79,0,*5D
1486854458.92,46996,9.94,73832.0,-9.95,-35.13,-32.79,0,*5A
1486854460.17,46997,9.94,73834.0,-9.95,-35.13,-32.63,0,*50
1486854461.41,46998,9.88,73830.3,-9.97,-35.17,-32.75,0,*5E
1486854462.65,46999,9.88,73832.0,-9.97,-35.13,-32.75,0,*5B
1486854463.91,47000,9.88,73828.8,-9.95,-35.17,-32.75,0,*55
1486854465.17,47001,9.94,73830.8,-9.95,-35.13,-32.75,0,*50
1486854466.4,47002,9.94,73832.5,-9.97,-35.13,-32.75,0,*51
1486854467.64,47003,9.94,73830.8,-9.97,-34.95,-32.57,0,*5F
1486854468.87,47004,9.94,73830.8,-9.99,-34.89,-32.51,0,*5D
1486854470.14,47005,9.88,73828.5,-9.97,-34.83,-32.45,0,*5D
1486854471.4,47006,9.88,73828.3,-9.97,-34.83,-32.45,0,*5E
1486854472.67,47007,9.88,73830.5,-9.97,-34.95,-32.45,0,*58
1486854473.93,47008,9.94,73830.5,-9.95,-34.77,-32.45,0,*59
1486854475.17,47009,9.94,73832.0,-9.97,-34.83,-32.39,0,*5A
1486854476.41,47010,9.94,73834.3,-9.95,-34.77,-32.39,0,*5B
1486854477.65,47011,9.94,73834.0,-9.99,-34.71,-32.35,0,*5C
1486854478.87,47012,9.94,73830.8,-9.97,-34.77,-32.39,0,*5B
1486854480.1,47013,9.94,73834.5,-9.97,-34.77,-32.29,0,*5B
1486854481.34,47014,9.94,73834.0,-9.99,-34.71,-32.35,0,*59
1486854482.58,47015,9.94,73834.0,-9.97,-34.59,-32.29,0,*51
1486854483.8,47016,9.94,73834.8,-9.97,-34.59,-32.13,0,*5B
1486854485.09,47017,9.94,73832.8,-9.99,-34.65,-32.19,0,*51
1486854486.38,47018,9.94,73834.8,-9.99,-34.65,-32.19,0,*5E
1486854487.67,47019,9.94,73834.0,-9.99,-34.65,-32.19,0,*5F
1486854488.96,47020,9.88,73830.0,-9.99,-34.65,-32.19,0,*55
1486854490.26,47021,9.88,73832.0,-9.99,-34.65,-32.19,0,*54
1486854491.52,47022,9.88,73832.0,-9.99,-34.53,-32.01,0,*5B
1486854492.81,47023,9.94,73832.8,-9.99,-34.53,-32.19,0,*53
1486854494.1,47024,9.88,73828.8,-9.99,-34.65,-32.19,0,*51
1486854495.35,47025,9.88,73830.8,-10.01,-34.71,-32.19,0,*6C
1486854496.61,47026,9.88,73828.3,-9.99,-34.65,-32.01,0,*5A
1486854497.88,47027,9.88,73830.3,-9.99,-34.53,-32.01,0,*5E
1486854499.12,47028,9.94,73834.3,-10.01,-34.53,-32.01,0,*68
1486854500.38,47029,9.88,73832.3,-9.99,-34.53,-32.01,0,*50
1486854501.64,47030,9.88,73832.0,-10.01,-34.47,-31.95,0,*6A